EN

Hourly Weather Paranapanema

Today, 7 March, Sunday

Time Temperature Precipitation Wind Pressure Humidity
00:00 +19°C° 0.2 mm 0 mps 706 mmHg 96%
01:00 +19°C° 0.2 mm 0 mps 706 mmHg 96%
02:00 +18°C° 0.2 mm 0 mps 706 mmHg 97%
03:00 +18°C° 0.2 mm 0 mps 706 mmHg 97%
04:00 +20°C° 0 mm 1 mps 706 mmHg 97%
05:00 +20°C° 0 mm 1 mps 706 mmHg 98%
06:00 +20°C° 0 mm 1 mps 706 mmHg 98%
07:00 +21°C° 0 mm 1 mps 707 mmHg 96%
08:00 +22°C° 0 mm 1 mps 707 mmHg 94%
09:00 +23°C° 0 mm 1 mps 708 mmHg 92%
10:00 +24°C° 0 mm 1 mps 708 mmHg 84%
11:00 +26°C° 0 mm 1 mps 708 mmHg 77%
12:00 +28°C° 0 mm 1 mps 708 mmHg 69%
13:00 +28°C° 0.6 mm 1 mps 707 mmHg 69%
14:00 +26°C° 0.6 mm 0 mps 707 mmHg 69%
15:00 +26°C° 0.6 mm 0 mps 707 mmHg 69%
16:00 +27°C° 1.4 mm 1 mps 706 mmHg 75%
17:00 +26°C° 1.4 mm 1 mps 706 mmHg 82%
18:00 +25°C° 1.4 mm 2 mps 706 mmHg 88%
19:00 +24°C° 0.2 mm 2 mps 706 mmHg 91%
20:00 +21°C° 0.2 mm 2 mps 707 mmHg 94%
21:00 +20°C° 0.2 mm 3 mps 707 mmHg 96%
22:00 +20°C° 0 mm 2 mps 707 mmHg 97%
23:00 +19°C° 0 mm 2 mps 707 mmHg 98%

Tomorrow, 8 March, Monday

Time Temperature Precipitation Wind Pressure Humidity
00:00 +19°C° 0 mm 2 mps 707 mmHg 98%
01:00 +19°C° 0 mm 2 mps 707 mmHg 98%
02:00 +19°C° 0 mm 2 mps 707 mmHg 98%
03:00 +19°C° 0 mm 2 mps 706 mmHg 98%
04:00 +20°C° 0 mm 1 mps 707 mmHg 98%
05:00 +20°C° 0 mm 1 mps 707 mmHg 98%
06:00 +20°C° 0 mm 1 mps 707 mmHg 97%
07:00 +21°C° 0 mm 1 mps 707 mmHg 95%
08:00 +22°C° 0 mm 1 mps 708 mmHg 92%
09:00 +23°C° 0 mm 1 mps 708 mmHg 90%
10:00 +24°C° 0.1 mm 1 mps 708 mmHg 83%
11:00 +26°C° 0.1 mm 1 mps 708 mmHg 77%
12:00 +27°C° 0.1 mm 1 mps 708 mmHg 70%
13:00 +28°C° 0.1 mm 1 mps 708 mmHg 69%
14:00 +28°C° 0.1 mm 2 mps 707 mmHg 68%
15:00 +29°C° 0.1 mm 2 mps 707 mmHg 66%
16:00 +28°C° 0.3 mm 2 mps 706 mmHg 72%
17:00 +26°C° 0.3 mm 2 mps 706 mmHg 78%
18:00 +25°C° 0.3 mm 2 mps 706 mmHg 83%
19:00 +24°C° 0 mm 2 mps 706 mmHg 88%
20:00 +23°C° 0 mm 2 mps 707 mmHg 92%
21:00 +20°C° 0 mm 3 mps 707 mmHg 96%
22:00 +20°C° 0 mm 2 mps 707 mmHg 97%
23:00 +19°C° 0 mm 2 mps 707 mmHg 98%

Day after tomorrow, 9 March, Tuesday

Time Temperature Precipitation Wind Pressure Humidity
00:00 +19°C° 0 mm 2 mps 706 mmHg 98%
01:00 +19°C° 0 mm 2 mps 706 mmHg 97%
02:00 +19°C° 0 mm 2 mps 706 mmHg 96%
03:00 +19°C° 0 mm 2 mps 706 mmHg 96%
04:00 +19°C° 0 mm 2 mps 706 mmHg 95%
05:00 +19°C° 0 mm 2 mps 706 mmHg 95%
06:00 +19°C° 0 mm 2 mps 706 mmHg 94%
07:00 +21°C° 0 mm 1 mps 706 mmHg 91%
08:00 +22°C° 0 mm 1 mps 707 mmHg 87%
09:00 +23°C° 0 mm 1 mps 707 mmHg 84%
10:00 +25°C° 0 mm 1 mps 707 mmHg 76%
11:00 +27°C° 0 mm 1 mps 707 mmHg 68%
12:00 +27°C° 0 mm 0 mps 707 mmHg 61%
13:00 +30°C° 0 mm 1 mps 706 mmHg 58%
14:00 +30°C° 0 mm 1 mps 706 mmHg 56%
15:00 +30°C° 0 mm 2 mps 705 mmHg 53%
16:00 +29°C° 0 mm 2 mps 705 mmHg 59%
17:00 +28°C° 0 mm 2 mps 705 mmHg 65%
18:00 +27°C° 0 mm 1 mps 704 mmHg 71%
19:00 +25°C° 0.1 mm 1 mps 705 mmHg 76%
20:00 +23°C° 0.1 mm 1 mps 705 mmHg 81%
21:00 +22°C° 0.1 mm 1 mps 705 mmHg 86%
22:00 +21°C° 0 mm 1 mps 705 mmHg 88%
23:00 +21°C° 0 mm 1 mps 705 mmHg 89%

10 March, Wednesday

Time Temperature Precipitation Wind Pressure Humidity
00:00 +19°C° 0 mm 0 mps 705 mmHg 91%
01:00 +18°C° 0 mm 0 mps 705 mmHg 91%
02:00 +18°C° 0 mm 0 mps 704 mmHg 91%
03:00 +18°C° 0 mm 0 mps 704 mmHg 92%
04:00 +18°C° 0 mm 0 mps 704 mmHg 92%
05:00 +18°C° 0 mm 0 mps 704 mmHg 92%
06:00 +17°C° 0 mm 0 mps 704 mmHg 92%
07:00 +20°C° 0 mm 0 mps 705 mmHg 85%
08:00 +24°C° 0 mm 1 mps 706 mmHg 78%
09:00 +26°C° 0 mm 1 mps 706 mmHg 71%
10:00 +27°C° 0.1 mm 2 mps 706 mmHg 67%
11:00 +28°C° 0.1 mm 3 mps 706 mmHg 62%
12:00 +30°C° 0.1 mm 3 mps 706 mmHg 58%
13:00 +30°C° 0.2 mm 3 mps 706 mmHg 58%
14:00 +30°C° 0.2 mm 3 mps 705 mmHg 57%
15:00 +30°C° 0.2 mm 3 mps 705 mmHg 57%
16:00 +29°C° 0.2 mm 3 mps 704 mmHg 63%
17:00 +27°C° 0.2 mm 2 mps 704 mmHg 69%
18:00 +26°C° 0.2 mm 1 mps 704 mmHg 76%
19:00 +24°C° 0.3 mm 2 mps 704 mmHg 82%
20:00 +23°C° 0.3 mm 2 mps 705 mmHg 89%
21:00 +20°C° 0.3 mm 2 mps 705 mmHg 95%
22:00 +19°C° 0 mm 2 mps 705 mmHg 96%
23:00 +19°C° 0 mm 2 mps 705 mmHg 96%

11 March, Thursday

Time Temperature Precipitation Wind Pressure Humidity
00:00 +20°C° 0 mm 1 mps 705 mmHg 97%
01:00 +20°C° 0 mm 1 mps 705 mmHg 97%
02:00 +19°C° 0 mm 1 mps 705 mmHg 98%
03:00 +19°C° 0 mm 1 mps 705 mmHg 98%
04:00 +19°C° 0 mm 1 mps 705 mmHg 98%
05:00 +19°C° 0 mm 1 mps 705 mmHg 98%
06:00 +19°C° 0 mm 1 mps 705 mmHg 97%
07:00 +21°C° 0 mm 1 mps 706 mmHg 92%
08:00 +23°C° 0 mm 1 mps 707 mmHg 87%
09:00 +24°C° 0 mm 1 mps 707 mmHg 81%
10:00 +26°C° 0.3 mm 1 mps 707 mmHg 75%
11:00 +28°C° 0.3 mm 2 mps 707 mmHg 68%
12:00 +29°C° 0.3 mm 2 mps 707 mmHg 62%
13:00 +29°C° 1 mm 2 mps 707 mmHg 65%
14:00 +29°C° 1 mm 2 mps 706 mmHg 68%
15:00 +29°C° 1 mm 2 mps 706 mmHg 70%
16:00 +28°C° 0.6 mm 2 mps 705 mmHg 74%
17:00 +27°C° 0.6 mm 1 mps 705 mmHg 77%
18:00 +24°C° 0.6 mm 0 mps 705 mmHg 80%
19:00 +25°C° 0.1 mm 1 mps 706 mmHg 83%
20:00 +24°C° 0.1 mm 1 mps 706 mmHg 86%
21:00 +23°C° 0.1 mm 1 mps 706 mmHg 88%
22:00 +22°C° 0 mm 1 mps 707 mmHg 91%
23:00 +22°C° 0 mm 1 mps 707 mmHg 93%

12 March, Friday

Time Temperature Precipitation Wind Pressure Humidity
00:00 +21°C° 0 mm 1 mps 707 mmHg 95%
01:00 +21°C° 0 mm 1 mps 707 mmHg 95%
02:00 +21°C° 0 mm 1 mps 706 mmHg 95%
03:00 +21°C° 0 mm 1 mps 706 mmHg 94%
04:00 +20°C° 0 mm 1 mps 706 mmHg 95%
05:00 +20°C° 0 mm 1 mps 707 mmHg 96%
06:00 +20°C° 0 mm 1 mps 707 mmHg 97%
07:00 +21°C° 0 mm 1 mps 707 mmHg 92%
08:00 +23°C° 0 mm 1 mps 708 mmHg 88%
09:00 +25°C° 0 mm 1 mps 708 mmHg 84%
10:00 +26°C° 0 mm 1 mps 708 mmHg 76%
11:00 +28°C° 0 mm 1 mps 709 mmHg 68%
12:00 +30°C° 0 mm 1 mps 709 mmHg 60%
13:00 +30°C° 0.1 mm 1 mps 708 mmHg 58%
14:00 +31°C° 0.1 mm 1 mps 708 mmHg 55%
15:00 +31°C° 0.1 mm 2 mps 707 mmHg 53%
16:00 +30°C° 0 mm 2 mps 707 mmHg 59%
17:00 +29°C° 0 mm 1 mps 707 mmHg 66%
18:00 +28°C° 0 mm 1 mps 706 mmHg 72%
19:00 +26°C° 0 mm 1 mps 706 mmHg 75%
20:00 +25°C° 0 mm 1 mps 707 mmHg 78%
21:00 +24°C° 0 mm 1 mps 707 mmHg 81%
22:00 +23°C° 0 mm 1 mps 707 mmHg 84%
23:00 +23°C° 0 mm 1 mps 707 mmHg 86%
Show more

We Need Your Consent

Meteoprog and our Service Providers may store and access personal data such as cookies, device identifiers or other similar technologies on your device and process such data to personalise content and ads, as well as provide social media features and to analyse the traffic.

  • Store and/or access information on your device

    Cookies, device identifiers or other information can be stored or accessed on your device for the purposes indicated above.

  • Personalised ads and content, ad and content measurement, audience insights, and products development

    Ads and content can be personalised based on a profile. More data can be added to better personalise ads and content. Ad and content performance can be measured. Insights about the audience who saw the ads and content can be derived. Such data can be used to develop or improve user’s experience, systems and software.

By clicking ‘I Agree’ you will allow the use of indicated cookies, device identifiers, web beacons or other similar technologies. Your settings can be changed in the browser on your device.

For certain purposes, legitimate interests may be relied on, rather than consent. You can read more about this in our Privacy and Cookie Policy.